| time (UTC) | temp C | wind direction | speed KPH | gust KPH | rain 1hr cm | rain 24hr cm | rain mn cm | humidity % | barometer mb |
| 20260510193005 | 19 | 270 | 0.0 | 16.1 | 0.00 | 0.58 | 0.05 | 61 | 1011.2 |
| 20260510191502 | 18 | 244 | 0.0 | 0.0 | 0.00 | 0.58 | 0.05 | 61 | 1011.4 |
| 20260510190003 | 19 | 242 | 0.0 | 0.0 | 0.00 | 0.58 | 0.05 | 63 | 1011.5 |
| 20260510184601 | 19 | 260 | 0.0 | 0.0 | 0.00 | 0.76 | 0.05 | 62 | 1011.7 |
| 20260510183100 | 20 | 166 | 0.0 | 0.0 | 0.00 | 0.76 | 0.05 | 63 | 1011.6 |
| 20260510181601 | 19 | 275 | 0.0 | 0.0 | 0.00 | 0.76 | 0.05 | 65 | 1011.5 |
| 20260510180110 | 20 | 172 | 0.0 | 1.6 | 0.00 | 0.76 | 0.05 | 65 | 1011.6 |
| 20260510174556 | 18 | 159 | 0.0 | 1.6 | 0.00 | 0.97 | 0.05 | 68 | 1011.7 |
| 20260510173100 | 17 | 78 | 0.0 | 8.0 | 0.00 | 0.97 | 0.05 | 74 | 1011.9 |
| 20260510171600 | 17 | 36 | 0.0 | 4.8 | 0.00 | 0.97 | 0.05 | 77 | 1012.1 |
| 20260510170055 | 17 | 229 | 0.0 | 8.0 | 0.00 | 0.97 | 0.05 | 75 | 1012.1 |
| 20260510164557 | 18 | 277 | 0.0 | 1.6 | 0.00 | 1.24 | 0.05 | 70 | 1012.1 |
| 20260510163058 | 20 | 82 | 0.0 | 11.3 | 0.00 | 1.24 | 0.05 | 67 | 1012.0 |
| 20260510161550 | 19 | 216 | 0.0 | 1.6 | 0.00 | 1.24 | 0.05 | 73 | 1011.9 |
| 20260510160046 | 17 | 78 | 0.0 | 0.0 | 0.00 | 1.24 | 0.05 | 79 | 1012.0 |
| 20260510154550 | 16 | 131 | 0.0 | 0.0 | 0.00 | 1.42 | 0.05 | 83 | 1012.2 |
| 20260510153038 | 15 | 190 | 0.0 | 0.0 | 0.00 | 1.42 | 0.05 | 85 | 1012.4 |
| 20260510151534 | 14 | 84 | 0.0 | 1.6 | 0.00 | 1.42 | 0.05 | 91 | 1012.2 |
| 20260510150030 | 13 | 232 | 0.0 | 6.4 | 0.00 | 1.42 | 0.05 | 93 | 1012.2 |
| 20260510144530 | 12 | 360 | 0.0 | 0.0 | 0.00 | 1.50 | 0.05 | 95 | 1012.4 |
| 20260510143022 | 12 | 360 | 0.0 | 0.0 | 0.00 | 1.50 | 0.05 | 96 | 1012.6 |
| 20260510141519 | 11 | 360 | 0.0 | 0.0 | 0.00 | 1.50 | 0.05 | 96 | 1012.6 |
| 20260510140015 | 11 | 155 | 0.0 | 0.0 | 0.00 | 1.50 | 0.05 | 96 | 1012.5 |
| 20260510134514 | 10 | 360 | 0.0 | 0.0 | 0.00 | 1.57 | 0.05 | 96 | 1012.6 |
| 20260510133011 | 10 | 360 | 0.0 | 0.0 | 0.00 | 1.57 | 0.05 | 96 | 1012.9 |
| 20260510131519 | 10 | 360 | 0.0 | 0.0 | 0.00 | 1.57 | 0.05 | 96 | 1012.7 |
| 20260510130005 | 10 | 360 | 0.0 | 0.0 | 0.00 | 1.57 | 0.05 | 96 | 1012.6 |
| 20260510124502 | 10 | 360 | 0.0 | 0.0 | 0.00 | 1.57 | 0.05 | 96 | 1012.4 |
| 20260510123100 | 10 | 360 | 0.0 | 0.0 | 0.00 | 1.57 | 0.05 | 96 | 1012.5 |
| 20260510121559 | 10 | 360 | 0.0 | 0.0 | 0.00 | 1.57 | 0.05 | 96 | 1012.5 |
| 20260510120058 | 10 | 360 | 0.0 | 0.0 | 0.00 | 1.57 | 0.05 | 96 | 1012.5 |
| 20260510114557 | 10 | 360 | 0.0 | 0.0 | 0.00 | 1.57 | 0.05 | 96 | 1012.8 |
| 20260510113100 | 10 | 360 | 0.0 | 0.0 | 0.00 | 1.57 | 0.05 | 96 | 1012.5 |
| 20260510111554 | 10 | 360 | 0.0 | 0.0 | 0.00 | 1.57 | 0.05 | 96 | 1012.2 |
| 20260510110054 | 9 | 360 | 0.0 | 1.6 | 0.00 | 1.57 | 0.05 | 96 | 1012.3 |
| 20260510104547 | 9 | 360 | 0.0 | 1.6 | 0.00 | 1.57 | 0.05 | 96 | 1012.1 |
| 20260510103046 | 9 | 360 | 0.0 | 4.8 | 0.00 | 1.57 | 0.05 | 96 | 1011.7 |
| 20260510101554 | 9 | 360 | 0.0 | 0.0 | 0.00 | 1.57 | 0.05 | 96 | 1011.4 |
| 20260510100043 | 9 | 360 | 0.0 | 0.0 | 0.00 | 1.57 | 0.05 | 96 | 1011.3 |
| 20260510094549 | 9 | 360 | 0.0 | 0.0 | 0.00 | 1.57 | 0.05 | 96 | 1011.2 |
| 20260510093045 | 9 | 360 | 0.0 | 0.0 | 0.00 | 1.57 | 0.05 | 96 | 1010.9 |
| 20260510091544 | 9 | 360 | 0.0 | 4.8 | 0.00 | 1.57 | 0.05 | 96 | 1010.9 |
| 20260510090041 | 9 | 360 | 0.0 | 0.0 | 0.00 | 1.57 | 0.05 | 96 | 1010.9 |
| 20260510084541 | 9 | 360 | 0.0 | 0.0 | 0.00 | 1.57 | 0.05 | 96 | 1011.2 |
| 20260510083039 | 9 | 360 | 0.0 | 0.0 | 0.00 | 1.57 | 0.05 | 96 | 1011.3 |
| 20260510081538 | 9 | 360 | 0.0 | 0.0 | 0.00 | 1.57 | 0.05 | 96 | 1011.6 |
| 20260510080041 | 9 | 360 | 0.0 | 0.0 | 0.00 | 1.57 | 0.05 | 96 | 1011.3 |
| 20260510074542 | 9 | 360 | 0.0 | 0.0 | 0.00 | 1.57 | 0.05 | 96 | 1011.4 |
| 20260510073044 | 9 | 360 | 0.0 | 0.0 | 0.00 | 1.57 | 0.05 | 96 | 1011.2 |
| 20260510071537 | 9 | 360 | 0.0 | 0.0 | 0.00 | 1.57 | 0.05 | 96 | 1011.0 |
| 20260510070035 | 9 | 360 | 0.0 | 0.0 | 0.00 | 1.57 | 0.05 | 96 | 1011.1 |
| 20260510064548 | 9 | 360 | 0.0 | 0.0 | 0.00 | 1.57 | 0.05 | 96 | 1011.2 |
| 20260510063032 | 9 | 360 | 0.0 | 0.0 | 0.00 | 1.57 | 0.05 | 96 | 1011.2 |
| 20260510061532 | 9 | 360 | 0.0 | 3.2 | 0.00 | 1.57 | 0.05 | 96 | 1011.3 |
| 20260510060029 | 9 | 360 | 0.0 | 0.0 | 0.03 | 1.57 | 0.05 | 96 | 1011.3 |
| 20260510054528 | 9 | 360 | 0.0 | 0.0 | 0.03 | 1.57 | 0.05 | 96 | 1011.3 |
| 20260510053039 | 9 | 360 | 0.0 | 0.0 | 0.05 | 1.57 | 0.05 | 96 | 1011.5 |
| 20260510051542 | 9 | 360 | 0.0 | 0.0 | 0.05 | 1.57 | 0.05 | 96 | 1011.2 |
| 20260510050030 | 9 | 360 | 0.0 | 0.0 | 0.03 | 1.55 | 0.03 | 96 | 1011.5 |
| 20260510044524 | 9 | 360 | 0.0 | 0.0 | 0.03 | 1.55 | 0.03 | 96 | 1011.6 |
| 20260510043025 | 9 | 360 | 0.0 | 0.0 | 0.00 | 1.52 | 0.00 | 96 | 1011.6 |
| 20260510041527 | 9 | 360 | 0.0 | 0.0 | 0.00 | 1.52 | 0.00 | 96 | 1011.5 |
| 20260510040021 | 9 | 360 | 0.0 | 0.0 | 0.00 | 1.52 | 0.00 | 96 | 1011.8 |
| 20260510034520 | 9 | 360 | 0.0 | 0.0 | 0.00 | 1.52 | 1.52 | 96 | 1011.7 |
| 20260510033020 | 8 | 360 | 0.0 | 0.0 | 0.00 | 1.52 | 1.52 | 96 | 1011.7 |
| 20260510031524 | 8 | 360 | 0.0 | 0.0 | 0.00 | 1.52 | 1.52 | 96 | 1011.6 |
| 20260510030018 | 8 | 360 | 0.0 | 0.0 | 0.00 | 1.52 | 1.52 | 96 | 1011.6 |
| 20260510024518 | 8 | 360 | 0.0 | 0.0 | 0.00 | 1.52 | 1.52 | 96 | 1011.9 |
| 20260510023014 | 8 | 360 | 0.0 | 0.0 | 0.00 | 1.52 | 1.52 | 96 | 1012.2 |
| 20260510021511 | 8 | 360 | 0.0 | 0.0 | 0.00 | 1.52 | 1.52 | 95 | 1012.2 |
| 20260510020009 | 8 | 360 | 0.0 | 0.0 | 0.00 | 1.52 | 1.52 | 96 | 1012.2 |
| 20260510014512 | 8 | 360 | 0.0 | 0.0 | 0.00 | 1.52 | 1.52 | 96 | 1012.2 |
| 20260510013006 | 8 | 360 | 0.0 | 0.0 | 0.00 | 1.52 | 1.52 | 95 | 1012.2 |
| 20260510011506 | 8 | 360 | 0.0 | 0.0 | 0.00 | 1.52 | 1.52 | 95 | 1012.1 |
| 20260510010006 | 8 | 360 | 0.0 | 0.0 | 0.00 | 1.52 | 1.52 | 95 | 1012.1 |
| 20260510004505 | 8 | 360 | 0.0 | 0.0 | 0.00 | 1.52 | 1.52 | 95 | 1011.7 |
| 20260510003005 | 8 | 360 | 0.0 | 0.0 | 0.00 | 1.52 | 1.52 | 95 | 1011.7 |
| 20260510001504 | 8 | 360 | 0.0 | 0.0 | 0.00 | 1.52 | 1.52 | 95 | 1011.5 |
| 20260510000004 | 8 | 360 | 0.0 | 0.0 | 0.00 | 1.52 | 1.52 | 95 | 1011.4 |
| 20260509234501 | 8 | 360 | 0.0 | 0.0 | 0.00 | 1.52 | 1.52 | 95 | 1011.4 |
| 20260509233057 | 8 | 360 | 0.0 | 0.0 | 0.00 | 1.52 | 1.52 | 95 | 1011.4 |
| 20260509231553 | 8 | 360 | 0.0 | 0.0 | 0.00 | 1.52 | 1.52 | 95 | 1011.3 |
| 20260509230049 | 8 | 360 | 0.0 | 0.0 | 0.00 | 1.52 | 1.52 | 95 | 1011.3 |
| 20260509224543 | 8 | 360 | 0.0 | 0.0 | 0.00 | 1.52 | 1.52 | 95 | 1011.3 |
| 20260509223041 | 8 | 360 | 0.0 | 1.6 | 0.03 | 1.52 | 1.52 | 95 | 1011.1 |
| 20260509221538 | 8 | 360 | 0.0 | 0.0 | 0.03 | 1.52 | 1.52 | 95 | 1011.3 |
| 20260509220042 | 8 | 360 | 0.0 | 0.0 | 0.03 | 1.52 | 1.52 | 95 | 1011.3 |
| 20260509214541 | 8 | 360 | 0.0 | 0.0 | 0.08 | 1.52 | 1.52 | 95 | 1011.3 |
| 20260509213034 | 8 | 360 | 0.0 | 0.0 | 0.13 | 1.50 | 1.50 | 95 | 1011.6 |
| 20260509211530 | 8 | 360 | 0.0 | 0.0 | 0.20 | 1.50 | 1.50 | 95 | 1011.8 |
| 20260509210031 | 8 | 360 | 0.0 | 0.0 | 0.25 | 1.50 | 1.50 | 95 | 1011.9 |
| 20260509204527 | 8 | 360 | 0.0 | 3.2 | 0.28 | 1.42 | 1.42 | 95 | 1011.9 |
| 20260509203035 | 8 | 360 | 0.0 | 0.0 | 0.25 | 1.37 | 1.37 | 95 | 1012.1 |
| 20260509201526 | 8 | 360 | 0.0 | 6.4 | 0.23 | 1.30 | 1.30 | 95 | 1012.1 |
| 20260509200028 | 8 | 360 | 0.0 | 0.0 | 0.25 | 1.24 | 1.24 | 94 | 1012.2 |
| 20260509194534 | 8 | 360 | 0.0 | 0.0 | 0.20 | 1.17 | 1.17 | 95 | 1012.3 |